Starlink 5275

operational
NORAD ID: 55398 Int'l Des: 2023-014 Owner: SPXS Country: US Constellation: starlink
LEOCIRCULAR

Über Starlink 5275

Beschreibung wird geladen...

Live-Position

3D-Globus wird geladen...

Nächste Überflüge

Höhenverlauf

Altitude vs Time

uPlot chart will show altitude changes over time

Zweizeiliger Elementsatz

1 55398U 23014H 25302.55507009 -.00000017 00000-0 63329-5 0 9990
2 55398 70.0009 35.0589 0003077 269.5082 90.5725 14.98331211152411
Epoch: 29. Okt. 2025 • Age: 14 hours

Aktueller Status

Höhe 583.1 km
Geschwindigkeit 7.57 km/s
Subsatellitenpunkt -34.28°S, 142.66°E
Startdatum 31. Jan. 2023
Alter 2.7 years
Typ internet

Technische Details

Klassifizierung Payload
Masse 305.00 kg
Trockenmasse 290.00 kg
Gesamtmasse 305.00 kg
Länge 0.20 m
Durchmesser 2.80 m
Spannweite 9.00 m
Form Box + pan
Hersteller SPXS
Bus-Typ Starlink
Phasenstatus In Orbit
Besitzer/Staat SPXS/US

Große Konstellationen

Loading constellations...